View from above orbital plane
|
View from above satellite
|
Ground track
|
The orbit data is extracted from the following two-line orbital elements,
1 18153U 87055B 13168.17873265 .00000166 00000-0 17798-4 0 496
2 18153 082.5004 035.4009 0021603 210.0928 297.6048 14.82290671401858
| Epoch (UTC): | 17 June 2013 04:17:22 |
| Eccentricity: | 0.0021603 |
| inclination: | 82.5004° |
| perigee height: | 607 km |
| apogee height: | 637 km |
| right ascension of ascending node: | 35.4009° |
| argument of perigee: | 210.0928° |
| revolutions per day: | 14.82290671 |
| mean anomaly at epoch: | 297.6048° |
| orbit number at epoch: | 40185 |
The dashed part of the orbit path shows where the satellite is in the earth's shadow,
|
|